Tracking 18945 objects as of 21-Jan-2018
HD Live streaming from Space Station
objects crossing your sky now

FENGYUN 1C DEB

Track FENGYUN 1C DEB now!
10-day predictions


NORAD ID: 33716
Int'l Code: 1999-025DHD
Perigee: 727.1 km
Apogee: 866.1 km
Inclination: 99.0 °
Period: 100.7 minutes
Semi major axis: 7167 km
RCS: 0.0093 m2 (small)
Launch date: May 10, 1999
Source: People's Republic of China (PRC)
Launch site: Taiyaun Space Center, China (TSC)

Note: This is SATELLITE DEBRIS
aabbcc
Your satellite tracking list
Your tracking list is empty




NASA's NSSDC Master Catalog

Two Line Element Set (TLE):
1 33716U 99025DHD 18020.21589008 +.00000020 +00000-0 +24371-4 0  9992
2 33716 099.0041 178.7364 0096955 116.1613 244.9579 14.30677960239124
Source of the keplerian elements: AFSPC